Regional Weather Roundup
Issued by NWS Cleveland, OH

Home | Current Version | Previous Version | Graphics & Text | Print | Product List | Glossary On
Versions: 1 2 3 4 5 6 7 8 9 10 11 12 13 14 15 16 17 18 19 20 21 22 23 24 25 26 27 28 29 30 31 32 33 34 35 36 37 38 39 40 41 42 43 44 45 46 47 48 49 50
000
ASUS41 KCLE 070402
RWRCLE
OHIO REGIONAL WEATHER ROUNDUP
NATIONAL WEATHER SERVICE CLEVELAND, OH
1200 AM EDT THU MAY 07 2015

NOTE: "FAIR" INDICATES FEW OR NO CLOUDS BELOW 12,000 FEET WITH NO
SIGNIFICANT WEATHER AND/OR OBSTRUCTIONS TO VISIBILITY.

OHZ001>008-015>018-024>027-034-035-043-044-070500-
   NORTHWEST OHIO

CITY           SKY/WX    TMP DP  RH WIND       PRES   REMARKS
DEFIANCE       CLEAR     61  56  83 E6        30.16S
FINDLAY        CLEAR     62  55  77 NE6       30.15F
TOLEDO EXPRESS CLEAR     56  53  90 CALM      30.17S
TOLEDO EXEC    CLEAR     55  51  86 CALM      30.18S FOG
LIMA           CLEAR     63  58  83 E6        30.15F
$$

OHZ009>014-019>023-028>033-038-089-070500-
   NORTHEAST OHIO

CITY           SKY/WX    TMP DP  RH WIND       PRES   REMARKS
CLE-HOPKINS    PTCLDY    58  55  90 CALM      30.19F
CLE-LAKEFRONT  CLEAR     52  50  93 CALM      30.18R
CUY CO. ARPT   NOT AVBL
LORAIN-ELYRIA  CLEAR     55  53  93 CALM      30.18F
ASHTABULA      CLEAR     54  52  93 CALM      30.19S
AKRON-CANTON   CLEAR     63  55  75 NE5       30.18S
WOOSTER        CLEAR     58  54  86 CALM      30.19R
MANSFIELD      CLEAR     60  57  89 NE3       30.18S
YOUNGSTOWN     PTCLDY    58  56  93 E6        30.18S
$$

OHZ042-051>053-060>062-070>072-077>081-070500-
  SOUTHWEST OHIO

CITY           SKY/WX    TMP DP  RH WIND       PRES   REMARKS
CINC-COVINGTON CLEAR     68  54  60 CALM      30.13S
CINC-LUNKEN    CLEAR     60  57  89 CALM      30.13S
HAMILTON       CLEAR     61  56  83 CALM      30.13S
DAYTON         CLEAR     69  59  70 E6        30.15S
WRIGHT-PAT AFB NOT AVBL
DAYTON GENERAL CLEAR     67  55  65 E6        30.13S
WILMINGTON     CLEAR     67  52  58 E6        30.14S
$$

OHZ036-037-039>041-045>050-054>059-063>069-073>076-082>088-070500-
  CENTRAL AND SOUTHEAST OHIO

CITY           SKY/WX    TMP DP  RH WIND       PRES   REMARKS
COLUMBUS       CLEAR     70  56  61 CALM      30.14R
OSU AIRPORT    CLEAR     68  56  65 E6        30.15R
BOLTON FIELD   NOT AVBL
RICKENBACK AFB NOT AVBL
NEWARK         CLEAR     62  57  83 CALM      30.15S
MARION         CLEAR     62  58  86 CALM      30.16S
LANCASTER      CLEAR     62  55  77 CALM      30.15R
ZANESVILLE     CLEAR     66  56  70 N3        30.15S
NEW PHILLY     CLEAR     65  60  84 CALM      30.17S
$$


USA.gov is the U.S. government's official web portal to all federal, state and local government web resources and services.